Weather Roundup
Issued by NWS

Home | Current Version | Previous Version | Graphics & Text | Print | Product List | Glossary Off
Versions: 1 2 3 4 5 6 7 8 9 10 11 12 13 14 15 16 17 18 19 20 21 22 23 24 25 26 27 28 29 30 31 32 33 34 35 36 37 38 39 40 41 42 43 44 45 46 47 48 49 50

000
NZUS93 KARX 292059
HRRWXR

CURRENT HOURLY OBSERVATIONS ACROSS
MUCH OF THE UPPER MISSISSIPPI VALLEY
NATIONAL WEATHER SERVICE LA CROSSE WI
400 PM CDT FRI JUL 29 2016


...SOUTHEAST MINNESOTA...


CITY           SKY/WX    TMP DP  RH WIND       PRES   REMARKS
ROCHESTER      MOSUNNY   76  61  59 N14       30.03F
ROCHESTER/MAYO MOCLDY    74  57  55 NE6       30.03F
WINONA         MOSUNNY   79  61  53 N6        30.00F
AUSTIN         SUNNY     75  59  57 NE8       30.02S
ALBERT LEA     MOSUNNY   75  61  60 NE9       30.02F
DODGE CENTER   MOSUNNY   75  57  53 NE10      30.03F
PRESTON        CLOUDY    71  60  69 NE5       30.03R
OWATONNA       MOSUNNY   75  57  53 NE10      30.03F
FARIBAULT      SUNNY     77  57  50 N8        30.03F
$$

...ELSEWHERE IN MINNESOTA...


CITY           SKY/WX    TMP DP  RH WIND       PRES   REMARKS
MINNEAPOLIS    MOSUNNY   78  50  37 N9        30.03F
INTNL FALLS    SUNNY     78  56  46 VRB7      30.05F
DULUTH         MOSUNNY   73  49  42 VRB6      30.09F
RED WING       SUNNY     79  48  34 NE5       30.01F
REDWOOD FALLS  MOSUNNY   79  53  40 N7        30.05F
MANKATO        SUNNY     75  55  50 NE8       30.04S
WORTHINGTON    MOSUNNY   75  57  53 NE10      30.07F
FAIRMONT       PTSUNNY   75  61  60 N8        30.03S
$$

...SOUTHWEST WISCONSIN...


CITY           SKY/WX    TMP DP  RH WIND       PRES   REMARKS
LA CROSSE      CLOUDY    76  64  66 NE6       29.98F
PRAIRIE DU CHI CLOUDY    69  63  82 N3        29.97F
BOSCOBEL       LGT RAIN  68  66  93 E3        29.98F
LONE ROCK      NOT AVBL
PLATTEVILLE    CLOUDY    70  68  94 N10       29.97F
FORT MC COY    CLOUDY    74  65  73 E9        30.01F
MAUSTON-NEW LI CLOUDY    70  65  85 NE3       30.00F
VIROQUA        MOCLDY    74  65  72 NE10      30.00F
WIS DELLS      NOT AVBL
$$

...ELSEWHERE IN WISCONSIN...


CITY           SKY/WX    TMP DP  RH WIND       PRES   REMARKS
MILWAUKEE      CLOUDY    73  65  75 NE12G21   29.98R
MADISON        PTSUNNY   73  66  78 NE14      29.97F
GREEN BAY      PTSUNNY   75  65  70 NE13      30.01F
EAU CLAIRE     NOT AVBL
BLACK RVR FLS  CLOUDY    73  64  72 SE3       30.00F
MEDFORD        CLOUDY    71  62  71 E3        30.05F
WAUSAU         CLOUDY    74  60  61 E8        30.02F
WIS RAPIDS     CLOUDY    72  61  68 E8        30.03F
MARSHFIELD     CLOUDY    75  59  57 E12       30.02F
RICE LAKE      MOSUNNY   76  53  45 N3        30.07S
$$

...NORTHEAST IOWA...


CITY           SKY/WX    TMP DP  RH WIND       PRES   REMARKS
WATERLOO       CLOUDY    71  64  78 N9        29.98S
DUBUQUE        CLOUDY    69  66  90 NE9       29.97F
DECORAH        CLOUDY    70  66  88 CALM      30.00S
MASON CITY     CLOUDY    72  60  66 NE9       30.03S
CHARLES CITY   CLOUDY    70  64  83 NE7G14    30.01S
OELWEIN        CLOUDY    70  64  83 N10       29.99F
$$

...ELSEWHERE IN IOWA...


CITY           SKY/WX    TMP DP  RH WIND       PRES   REMARKS
DES MOINES     CLOUDY    72  64  76 N13       29.99F
IOWA CITY      PTSUNNY   78  67  68 N8        29.94F
FORT DODGE     CLOUDY    70  61  73 N6        30.03F
MARSHALLTOWN   CLOUDY    71  66  84 N9        29.98F
CEDAR RAPIDS   LGT RAIN  71  69  93 N9        29.94F
$$

...NORTHERN ILLINOIS...


CITY           SKY/WX    TMP DP  RH WIND       PRES   REMARKS
CHICAGO-OHARE  LGT RAIN  72  69  90 NE8       29.93F FOG
CHICAGO-MIDWAY LGT RAIN  75  71  87 NE9       29.92R FOG
MOLINE         PTSUNNY   83  67  58 NW7       29.90F
ROCKFORD       CLOUDY    77  70  79 NE12      29.94S
PEORIA         MOSUNNY   80  66  62 NW8       29.90F
$$

NOTE: "FAIR" INDICATES FEW OR NO CLOUDS BELOW 12,000 FEET WITH NO
SIGNIFICANT WEATHER AND/OR OBSTRUCTIONS TO VISIBILITY. WIND
SPEEDS ARE IN MILES-PER-HOUR.




USA.gov is the U.S. government's official web portal to all federal, state and local government web resources and services.